{"data":{"norad_id":67232,"intl_designator":"2025-309A","name":"SPACEMOBILE-006","alt_names":[],"object_type":"PAYLOAD","status":"ACTIVE","operator":null,"country":"US","launch_date":"2025-12-24","launch_site_code":"SRILR","launch_vehicle":null,"mission":null,"orbit_class":"UNKNOWN","rcs_meters":null,"size_class":null,"mass_kg":null,"dimensions":null,"purposes":[],"wikipedia_slug":null,"has_3d_model":false,"image_url":null,"decayed_at":null,"tle_current":{"epoch":"2026-05-25T04:53:37.378176Z","epoch_age_seconds":64183,"freshness":"FRESH","line1":"1 67232U 25309A   26145.20390484  .00002927  00000+0  15581-3 0  9999","line2":"2 67232  52.9940  76.8901 0012322  64.8087 295.4182 15.18383202 23105","mean_motion":15.18383202,"eccentricity":0.0012322,"inclination_deg":52.994,"raan_deg":76.8901,"arg_perigee_deg":64.8087,"mean_anomaly_deg":295.4182,"bstar":0.00015581,"rev_number":2310,"period_min":94.837719365128,"perigee_km":502.23806673663,"apogee_km":519.21498200609,"semimajor_km":6888.8635243714,"source":"CELESTRAK","updated_at":"2026-05-25T13:38:06.820634Z"}}}